Погода в Желтых Водах

Украина / Днепропетровская область     48°20′43″N   33°30′32″E
темп.,
°C
ветер,
м/с
пор.,
м/с
влажн.,
%
обл.,
%
осадки,
мм/ч
давл.,
гПа
погр.,
м
27 октября, ср
ср2700:00+3ююв36475 0.0 103088
03:00+2ююв33730 0.0 103048
06:00+1ю22810 0.0 102923
09:00+3ю35710 0.0 1028156
12:00+9юз34490 0.0 1028698
15:00+11зюз34494 0.0 10251083
18:00+8юз226515 0.0 102514
21:00+9юз1162100 0.0 102515
28 октября, чт
чт2800:00+6зюз22731 0.0 102520
03:00+5зсз22815 0.0 102520
06:00+5зсз2275100 0.0 102511
09:00+7зсз2468100 0.0 1026118
12:00+12з455246 0.0 1025582
15:00+15зсз564680 0.0 10231145
18:00+11зсз356276 0.0 102376
21:00+12зсз3663100 0.0 1024180
29 октября, пт
пт2900:00+11ссз387397 0.0 1024279
03:00+10с378264 0.0 1025284
06:00+8с35905 0.0 1026104
09:00+10ссв257714 0.0 1027205
12:00+14св34540 0.0 10271008
15:00+15св34510 0.0 10271230
18:00+11св34650 0.0 102863
21:00+9всв34720 0.0 102948
30 октября, сб
сб3000:00+8вюв33720 0.0 103027
03:00+7вюв22731 0.0 103015
06:00+6в33750 0.0 103146
09:00+7вюв36770 0.0 1032183
12:00+13юв45570 0.0 1031873
15:00+14вюв45440 0.0 10301272
18:00+11вюв34540 0.0 103046
21:00+9в34620 0.0 103060
31 октября, вс
вс3100:00+7вюв34690 0.0 103159
03:00+6в33780 0.0 103047
05:00+5всв37780 0.0 1029114
08:00+7в511700 0.0 1029302
11:00+13в68520 0.0 1027811
14:00+15вюв68420 0.0 10251237
17:00+11в47540 0.0 102492
20:00+9в39620 0.0 1024149